| time (UTC) | temp C | wind direction | speed KPH | gust KPH | rain 1hr cm | rain 24hr cm | rain mn cm | humidity % | barometer mb |
| 20260902014537 | 23 | 0.0 | 0.0 | 0.00 | 0.18 | 0.15 | 91 | 1018.9 | |
| 20260902013537 | 24 | 0.0 | 0.0 | 0.00 | 0.18 | 0.15 | 91 | 1018.9 | |
| 20260902012517 | 24 | 0.0 | 0.0 | 0.00 | 0.18 | 0.15 | 90 | 1018.7 | |
| 20260902011517 | 24 | 0.0 | 0.0 | 0.00 | 0.18 | 0.15 | 89 | 1018.6 | |
| 20260902010517 | 25 | 0.0 | 0.0 | 0.00 | 0.18 | 0.15 | 88 | 1018.7 | |
| 20260902005517 | 25 | 0.0 | 0.0 | 0.00 | 0.18 | 0.15 | 87 | 1018.4 | |
| 20260902004517 | 25 | 0.0 | 0.0 | 0.00 | 0.18 | 0.15 | 86 | 1018.4 | |
| 20260902003537 | 25 | 0.0 | 0.0 | 0.03 | 0.18 | 0.15 | 85 | 1018.2 | |
| 20260902002517 | 26 | 0.0 | 0.0 | 0.03 | 0.18 | 0.15 | 83 | 1018.2 | |
| 20260902001537 | 26 | 0.0 | 0.0 | 0.03 | 0.18 | 0.15 | 81 | 1018.2 | |
| 20260902000517 | 27 | 0.0 | 0.0 | 0.03 | 0.18 | 0.15 | 79 | 1018.3 | |
| 20260901235537 | 27 | 0.0 | 0.0 | 0.05 | 0.18 | 0.15 | 77 | 1018.2 | |
| 20260901234617 | 28 | 0.0 | 0.0 | 0.08 | 0.18 | 0.15 | 75 | 1018.4 | |
| 20260901233537 | 29 | 0.0 | 0.0 | 0.05 | 0.15 | 0.13 | 72 | 1018.6 | |
| 20260901232517 | 30 | 0.0 | 0.0 | 0.08 | 0.15 | 0.13 | 69 | 1018.6 | |
| 20260901231517 | 31 | 0.0 | 0.0 | 0.08 | 0.15 | 0.13 | 67 | 1018.8 | |
| 20260901230557 | 33 | 0.0 | 0.0 | 0.08 | 0.15 | 0.13 | 61 | 1018.9 | |
| 20260901224617 | 35 | 0.0 | 1.6 | 0.05 | 0.10 | 0.08 | 51 | 1019.0 | |
| 20260901223516 | 35 | 0 | 1.6 | 4.8 | 0.05 | 0.10 | 0.08 | 50 | 1018.9 |
| 20260901222516 | 35 | 45 | 1.6 | 4.8 | 0.03 | 0.08 | 0.05 | 49 | 1018.9 |
| 20260901221516 | 35 | 0.0 | 4.8 | 0.03 | 0.08 | 0.05 | 49 | 1018.8 | |
| 20260901220516 | 35 | 23 | 1.6 | 4.8 | 0.03 | 0.08 | 0.05 | 49 | 1018.8 |
| 20260901215516 | 36 | 248 | 1.6 | 4.8 | 0.00 | 0.05 | 0.03 | 48 | 1018.7 |
| 20260901214516 | 36 | 23 | 1.6 | 6.4 | 0.00 | 0.05 | 0.03 | 49 | 1018.6 |
| 20260901213516 | 36 | 270 | 1.6 | 8.0 | 0.00 | 0.05 | 0.03 | 50 | 1018.8 |
| 20260901212516 | 35 | 23 | 1.6 | 4.8 | 0.00 | 0.05 | 0.03 | 48 | 1018.9 |
| 20260901211516 | 36 | 23 | 1.6 | 6.4 | 0.00 | 0.05 | 0.03 | 46 | 1019.0 |
| 20260901210556 | 36 | 23 | 1.6 | 4.8 | 0.00 | 0.05 | 0.03 | 47 | 1019.1 |
| 20260901205616 | 36 | 23 | 1.6 | 4.8 | 0.00 | 0.05 | 0.03 | 48 | 1019.0 |
| 20260901204516 | 36 | 45 | 1.6 | 8.0 | 0.00 | 0.05 | 0.03 | 47 | 1019.0 |
| 20260901203516 | 36 | 45 | 1.6 | 4.8 | 0.00 | 0.05 | 0.03 | 49 | 1019.1 |
| 20260901202556 | 36 | 23 | 1.6 | 8.0 | 0.00 | 0.05 | 0.03 | 48 | 1019.2 |
| 20260901201536 | 36 | 0.0 | 6.4 | 0.00 | 0.05 | 0.03 | 47 | 1019.2 | |
| 20260901200516 | 35 | 0.0 | 4.8 | 0.00 | 0.05 | 0.03 | 50 | 1019.3 | |
| 20260901195516 | 35 | 0.0 | 3.2 | 0.00 | 0.05 | 0.03 | 55 | 1019.4 | |
| 20260901194556 | 34 | 23 | 3.2 | 8.0 | 0.00 | 0.05 | 0.03 | 51 | 1019.4 |
| 20260901193516 | 34 | 0.0 | 3.2 | 0.00 | 0.05 | 0.03 | 55 | 1019.5 | |
| 20260901192516 | 34 | 45 | 1.6 | 8.0 | 0.00 | 0.05 | 0.03 | 50 | 1019.5 |
| 20260901191556 | 34 | 0.0 | 3.2 | 0.00 | 0.05 | 0.03 | 53 | 1019.6 | |
| 20260901190516 | 34 | 45 | 3.2 | 8.0 | 0.00 | 0.05 | 0.03 | 51 | 1019.8 |
| 20260901185556 | 34 | 0.0 | 3.2 | 0.00 | 0.05 | 0.03 | 50 | 1019.9 | |
| 20260901184556 | 34 | 45 | 1.6 | 3.2 | 0.00 | 0.05 | 0.03 | 53 | 1020.0 |
| 20260901183536 | 33 | 23 | 1.6 | 8.0 | 0.00 | 0.05 | 0.03 | 54 | 1020.0 |
| 20260901182536 | 33 | 0.0 | 3.2 | 0.00 | 0.05 | 0.03 | 54 | 1020.1 | |
| 20260901181516 | 33 | 45 | 1.6 | 6.4 | 0.00 | 0.05 | 0.03 | 57 | 1020.2 |
| 20260901180536 | 33 | 0.0 | 4.8 | 0.00 | 0.05 | 0.03 | 58 | 1020.2 | |
| 20260901175516 | 33 | 0 | 1.6 | 4.8 | 0.00 | 0.05 | 0.03 | 56 | 1020.2 |
| 20260901174516 | 33 | 0.0 | 3.2 | 0.00 | 0.05 | 0.03 | 58 | 1020.3 | |
| 20260901173516 | 33 | 45 | 3.2 | 8.0 | 0.00 | 0.05 | 0.03 | 62 | 1020.5 |
| 20260901172536 | 32 | 293 | 1.6 | 4.8 | 0.00 | 0.05 | 0.03 | 62 | 1020.3 |
| 20260901171516 | 32 | 315 | 1.6 | 4.8 | 0.00 | 0.05 | 0.03 | 60 | 1020.4 |
| 20260901170657 | 32 | 45 | 1.6 | 8.0 | 0.00 | 0.05 | 0.03 | 62 | 1020.5 |
| 20260901165616 | 32 | 23 | 1.6 | 6.4 | 0.00 | 0.05 | 0.03 | 63 | 1020.6 |
| 20260901164516 | 32 | 45 | 1.6 | 8.0 | 0.00 | 0.05 | 0.03 | 61 | 1020.7 |
| 20260901163516 | 32 | 0.0 | 3.2 | 0.00 | 0.05 | 0.03 | 67 | 1020.8 | |
| 20260901162516 | 32 | 45 | 1.6 | 6.4 | 0.00 | 0.08 | 0.03 | 65 | 1021.0 |
| 20260901161616 | 31 | 68 | 1.6 | 9.7 | 0.00 | 0.08 | 0.03 | 65 | 1021.1 |
| 20260901160516 | 31 | 0.0 | 4.8 | 0.00 | 0.10 | 0.03 | 67 | 1021.2 | |
| 20260901155516 | 31 | 248 | 1.6 | 6.4 | 0.00 | 0.10 | 0.03 | 69 | 1021.3 |
| 20260901154556 | 31 | 0.0 | 3.2 | 0.00 | 0.10 | 0.03 | 71 | 1021.4 | |
| 20260901153556 | 31 | 23 | 1.6 | 4.8 | 0.00 | 0.10 | 0.03 | 71 | 1021.5 |
| 20260901152656 | 30 | 0 | 1.6 | 6.4 | 0.03 | 0.10 | 0.03 | 71 | 1021.7 |
| 20260901151536 | 30 | 23 | 1.6 | 9.7 | 0.03 | 0.10 | 0.03 | 73 | 1021.8 |
| 20260901150516 | 30 | 0.0 | 4.8 | 0.03 | 0.10 | 0.03 | 75 | 1021.8 | |
| 20260901145536 | 29 | 225 | 1.6 | 6.4 | 0.03 | 0.10 | 0.03 | 75 | 1021.8 |
| 20260901144516 | 29 | 0.0 | 4.8 | 0.03 | 0.10 | 0.03 | 77 | 1021.8 | |
| 20260901143658 | 28 | 23 | 1.6 | 6.4 | 0.03 | 0.13 | 0.03 | 78 | 1021.8 |
| 20260901142516 | 28 | 0.0 | 1.6 | 0.00 | 0.10 | 0.00 | 80 | 1021.8 | |
| 20260901141516 | 27 | 0.0 | 3.2 | 0.00 | 0.10 | 0.00 | 82 | 1021.7 | |
| 20260901140515 | 27 | 0.0 | 0.0 | 0.00 | 0.10 | 0.00 | 88 | 1021.6 | |
| 20260901135636 | 27 | 23 | 1.6 | 6.4 | 0.00 | 0.10 | 0.00 | 87 | 1021.6 |
| 20260901134616 | 26 | 0.0 | 1.6 | 0.00 | 0.10 | 0.00 | 89 | 1021.5 | |
| 20260901133515 | 26 | 0.0 | 0.0 | 0.00 | 0.13 | 0.00 | 93 | 1021.5 | |
| 20260901132515 | 25 | 0.0 | 3.2 | 0.00 | 0.13 | 0.00 | 93 | 1021.6 | |
| 20260901131555 | 24 | 0.0 | 3.2 | 0.00 | 0.13 | 0.00 | 96 | 1021.5 | |
| 20260901130515 | 23 | 0.0 | 1.6 | 0.00 | 0.13 | 0.00 | 100 | 1021.4 | |
| 20260901125535 | 23 | 0.0 | 1.6 | 0.00 | 0.13 | 0.00 | 100 | 1021.3 | |
| 20260901124535 | 22 | 0.0 | 1.6 | 0.00 | 0.13 | 0.00 | 100 | 1021.3 | |
| 20260901123535 | 22 | 0.0 | 1.6 | 0.00 | 0.13 | 0.00 | 100 | 1021.3 | |
| 20260901122556 | 22 | 0.0 | 0.0 | 0.00 | 0.13 | 0.00 | 100 | 1021.2 | |
| 20260901121515 | 21 | 0.0 | 0.0 | 0.00 | 0.13 | 0.00 | 100 | 1021.1 | |
| 20260901120515 | 21 | 0.0 | 0.0 | 0.00 | 0.13 | 0.00 | 100 | 1021.0 | |
| 20260901115515 | 21 | 0.0 | 0.0 | 0.00 | 0.13 | 0.00 | 100 | 1021.1 | |
| 20260901114515 | 20 | 0.0 | 0.0 | 0.00 | 0.13 | 0.00 | 99 | 1021.0 | |
| 20260901113515 | 20 | 0.0 | 0.0 | 0.00 | 0.13 | 0.00 | 99 | 1020.9 | |
| 20260901112535 | 20 | 0.0 | 0.0 | 0.00 | 0.13 | 0.00 | 99 | 1021.0 | |
| 20260901111515 | 20 | 0.0 | 0.0 | 0.00 | 0.13 | 0.00 | 99 | 1020.8 | |
| 20260901110515 | 20 | 0.0 | 0.0 | 0.00 | 0.13 | 0.00 | 99 | 1020.7 | |
| 20260901105535 | 20 | 0.0 | 0.0 | 0.00 | 0.13 | 0.00 | 99 | 1020.6 | |
| 20260901104555 | 20 | 0.0 | 0.0 | 0.00 | 0.13 | 0.00 | 99 | 1020.5 | |
| 20260901103515 | 20 | 0.0 | 0.0 | 0.00 | 0.13 | 0.00 | 99 | 1020.5 | |
| 20260901102515 | 20 | 0.0 | 0.0 | 0.00 | 0.13 | 0.00 | 99 | 1020.3 | |
| 20260901101515 | 20 | 0.0 | 0.0 | 0.00 | 0.13 | 0.00 | 99 | 1020.3 | |
| 20260901100535 | 20 | 0.0 | 0.0 | 0.00 | 0.13 | 0.00 | 99 | 1020.3 | |
| 20260901095535 | 20 | 0.0 | 0.0 | 0.00 | 0.13 | 0.00 | 99 | 1020.3 | |
| 20260901094535 | 20 | 0.0 | 0.0 | 0.00 | 0.15 | 0.00 | 99 | 1020.2 | |
| 20260901093515 | 20 | 0.0 | 0.0 | 0.00 | 0.15 | 0.00 | 99 | 1020.2 | |
| 20260901092517 | 20 | 0.0 | 0.0 | 0.00 | 0.15 | 0.00 | 99 | 1020.2 | |
| 20260901091517 | 20 | 0.0 | 0.0 | 0.00 | 0.15 | 0.00 | 99 | 1020.0 | |
| 20260901090617 | 20 | 0.0 | 0.0 | 0.00 | 0.15 | 0.00 | 99 | 1020.0 | |
| 20260901085557 | 20 | 0.0 | 0.0 | 0.00 | 0.15 | 0.00 | 99 | 1020.1 | |
| 20260901084617 | 20 | 0.0 | 0.0 | 0.00 | 0.15 | 0.00 | 99 | 1020.2 | |
| 20260901083517 | 20 | 0.0 | 0.0 | 0.00 | 0.15 | 0.00 | 99 | 1020.4 | |
| 20260901082517 | 20 | 0.0 | 0.0 | 0.00 | 0.15 | 0.00 | 99 | 1020.5 | |
| 20260901081517 | 20 | 0.0 | 0.0 | 0.00 | 0.15 | 0.00 | 99 | 1020.4 | |
| 20260901080517 | 21 | 0.0 | 0.0 | 0.00 | 0.15 | 0.00 | 99 | 1020.4 | |
| 20260901075517 | 21 | 0.0 | 0.0 | 0.00 | 0.15 | 0.00 | 99 | 1020.6 | |
| 20260901074517 | 21 | 0.0 | 0.0 | 0.00 | 0.15 | 0.00 | 99 | 1020.5 | |
| 20260901073517 | 21 | 0.0 | 0.0 | 0.00 | 0.15 | 0.00 | 99 | 1020.5 | |
| 20260901072517 | 21 | 0.0 | 0.0 | 0.00 | 0.15 | 0.00 | 99 | 1020.8 | |
| 20260901071537 | 21 | 0.0 | 0.0 | 0.00 | 0.15 | 0.00 | 99 | 1020.8 | |
| 20260901070517 | 21 | 0.0 | 0.0 | 0.00 | 0.15 | 0.00 | 99 | 1020.9 | |
| 20260901065517 | 21 | 0.0 | 0.0 | 0.00 | 0.15 | 0.00 | 99 | 1020.9 | |
| 20260901064517 | 21 | 0.0 | 0.0 | 0.00 | 0.15 | 0.00 | 98 | 1020.9 | |
| 20260901063557 | 21 | 0.0 | 0.0 | 0.00 | 0.15 | 0.00 | 98 | 1021.0 | |
| 20260901062537 | 21 | 0.0 | 0.0 | 0.00 | 0.15 | 0.00 | 98 | 1021.0 | |
| 20260901061517 | 21 | 0.0 | 0.0 | 0.00 | 0.15 | 0.00 | 98 | 1021.0 | |
| 20260901060517 | 21 | 0.0 | 0.0 | 0.00 | 0.15 | 0.00 | 98 | 1021.1 | |
| 20260901055517 | 21 | 0.0 | 0.0 | 0.00 | 0.15 | 0.00 | 98 | 1021.1 | |
| 20260901054517 | 21 | 0.0 | 0.0 | 0.00 | 0.15 | 0.00 | 98 | 1021.1 | |
| 20260901053537 | 21 | 0.0 | 0.0 | 0.00 | 0.15 | 0.00 | 98 | 1021.2 | |
| 20260901052537 | 21 | 0.0 | 0.0 | 0.00 | 0.15 | 0.00 | 98 | 1021.1 | |
| 20260901051517 | 21 | 0.0 | 0.0 | 0.00 | 0.15 | 0.00 | 98 | 1021.2 | |
| 20260901050637 | 21 | 0.0 | 0.0 | 0.00 | 0.15 | 0.00 | 98 | 1021.1 | |
| 20260901045537 | 21 | 0.0 | 0.0 | 0.00 | 0.15 | 0.00 | 98 | 1021.1 | |
| 20260901044537 | 21 | 0.0 | 0.0 | 0.00 | 0.15 | 0.00 | 98 | 1021.1 | |
| 20260901043557 | 21 | 0.0 | 0.0 | 0.00 | 0.15 | 0.00 | 98 | 1021.1 | |
| 20260901042557 | 21 | 0.0 | 0.0 | 0.00 | 0.15 | 0.00 | 98 | 1021.1 | |
| 20260901041516 | 21 | 0.0 | 0.0 | 0.00 | 0.15 | 0.00 | 98 | 1021.1 | |
| 20260901040557 | 21 | 0.0 | 0.0 | 0.03 | 0.15 | 0.00 | 98 | 1021.0 | |
| 20260901035517 | 21 | 0.0 | 0.0 | 0.03 | 0.15 | 0.15 | 98 | 1021.0 | |
| 20260901034517 | 21 | 0.0 | 0.0 | 0.03 | 0.15 | 0.15 | 98 | 1020.9 | |
| 20260901033557 | 22 | 0.0 | 0.0 | 0.03 | 0.15 | 0.15 | 97 | 1021.0 | |
| 20260901032537 | 22 | 0.0 | 0.0 | 0.03 | 0.15 | 0.15 | 97 | 1020.9 | |
| 20260901031537 | 22 | 0.0 | 0.0 | 0.03 | 0.15 | 0.15 | 97 | 1020.9 | |
| 20260901030517 | 22 | 0.0 | 0.0 | 0.00 | 0.13 | 0.13 | 98 | 1021.0 | |
| 20260901025537 | 22 | 0.0 | 0.0 | 0.00 | 0.13 | 0.13 | 97 | 1020.9 | |
| 20260901024537 | 22 | 0.0 | 0.0 | 0.00 | 0.13 | 0.13 | 97 | 1020.9 | |
| 20260901023557 | 22 | 0.0 | 0.0 | 0.00 | 0.13 | 0.13 | 97 | 1020.8 | |
| 20260901022517 | 22 | 0.0 | 0.0 | 0.00 | 0.13 | 0.13 | 97 | 1020.7 | |
| 20260901021617 | 22 | 0.0 | 0.0 | 0.00 | 0.13 | 0.13 | 97 | 1020.8 | |
| 20260901020517 | 22 | 0.0 | 0.0 | 0.00 | 0.13 | 0.13 | 97 | 1020.8 | |
| 20260901015537 | 22 | 0.0 | 0.0 | 0.00 | 0.13 | 0.13 | 96 | 1020.6 |